Back to catalog

FENGYUN 1C DEB

AlivePO
NORAD 30629·DEBRIS·🇨🇳 China

Launched May 10, 1999 from Taiyuan Satellite Launch Center

Loading…

Next Passes (next 24 hours)

TLE

FreshSource: Space-Track

Epoch: Sep 14, 2026, 14:38 UTC

1 30629U 99025ANL 26257.60988634  .00008962  00000-0  15984-2 0  9995
2 30629  99.2564  32.1608 0006603  81.8668 340.6955 14.67257549 19258

Track FENGYUN 1C DEB in real time with AllMySat

Download on the App Store